"Time","Value","Approval","myLocation"
"2023-05-06 00:00",6.52279418260074,"Approved","OW201"
"2023-05-06 01:00",6.52323551387062,"Approved","OW201"
"2023-05-06 02:00",6.52299250514049,"Approved","OW201"
"2023-05-06 03:00",6.52289484641037,"Approved","OW201"
"2023-05-06 04:00",6.52573454768024,"Approved","OW201"
"2023-05-06 05:00",6.52762742895012,"Approved","OW201"
"2023-05-06 06:00",6.52418458022,"Approved","OW201"
"2023-05-06 07:00",6.52225413148987,"Approved","OW201"
"2023-05-06 08:00",6.51951275275975,"Approved","OW201"
"2023-05-06 09:00",6.51647137402962,"Approved","OW201"
"2023-05-06 10:00",6.5107066652995,"Approved","OW201"
"2023-05-06 11:00",6.50500606656938,"Approved","OW201"
"2023-05-06 12:00",6.50275848783925,"Approved","OW201"
"2023-05-06 13:00",6.49888447910913,"Approved","OW201"
"2023-05-06 14:00",6.499277520379,"Approved","OW201"
"2023-05-06 15:00",6.50093924164888,"Approved","OW201"
"2023-05-06 16:00",6.50197290291875,"Approved","OW201"
"2023-05-06 17:00",6.50339253418863,"Approved","OW201"
"2023-05-06 18:00",6.50641053545851,"Approved","OW201"
"2023-05-06 19:00",6.50681613672838,"Approved","OW201"
"2023-05-06 20:00",6.50621863799826,"Approved","OW201"
"2023-05-06 21:00",6.50723353926813,"Approved","OW201"
"2023-05-06 22:00",6.50729689053801,"Approved","OW201"
"2023-05-06 23:00",6.50865078180788,"Approved","OW201"
"2023-05-07 00:00",6.50836878307776,"Approved","OW201"
"2023-05-07 01:00",6.50994453434764,"Approved","OW201"
"2023-05-07 02:00",6.51011408561751,"Approved","OW201"
"2023-05-07 03:00",6.50927743688739,"Approved","OW201"
"2023-05-07 04:00",6.51223442815726,"Approved","OW201"
"2023-05-07 05:00",6.51328211942714,"Approved","OW201"
"2023-05-07 06:00",6.51196113069702,"Approved","OW201"
"2023-05-07 07:00",6.51126200196689,"Approved","OW201"
"2023-05-07 08:00",6.50835667323677,"Approved","OW201"
"2023-05-07 09:00",6.50825118450664,"Approved","OW201"
"2023-05-07 10:00",6.50679414577652,"Approved","OW201"
"2023-05-07 11:00",6.5044824570464,"Approved","OW201"
"2023-05-07 12:00",6.50035836831627,"Approved","OW201"
"2023-05-07 13:00",6.49993574958615,"Approved","OW201"
"2023-05-07 14:00",6.49962406085602,"Approved","OW201"
"2023-05-07 15:00",6.5015107421259,"Approved","OW201"
"2023-05-07 16:00",6.50120068339577,"Approved","OW201"
"2023-05-07 17:00",6.50152031466565,"Approved","OW201"
"2023-05-07 18:00",6.50416800593553,"Approved","OW201"
"2023-05-07 19:00",6.5037486472054,"Approved","OW201"
"2023-05-07 20:00",6.50650416847528,"Approved","OW201"
"2023-05-07 21:00",6.50678317974515,"Approved","OW201"
"2023-05-07 22:00",6.50689498101503,"Approved","OW201"
"2023-05-07 23:00",6.5039131422849,"Approved","OW201"
"2023-05-08 00:00",6.50381401355478,"Approved","OW201"
"2023-05-08 01:00",6.50587100482466,"Approved","OW201"
"2023-05-08 02:00",6.50561559609453,"Approved","OW201"
"2023-05-08 03:00",6.50826475736441,"Approved","OW201"
"2023-05-08 04:00",6.51052174863429,"Approved","OW201"
"2023-05-08 05:00",6.51155850990416,"Approved","OW201"
"2023-05-08 06:00",6.51130000117404,"Approved","OW201"
"2023-05-08 07:00",6.50891343244391,"Approved","OW201"
"2023-05-08 08:00",6.50621283371379,"Approved","OW201"
"2023-05-08 09:00",6.50352936498366,"Approved","OW201"
"2023-05-08 10:00",6.50126775625354,"Approved","OW201"
"2023-05-08 11:00",6.49842017752342,"Approved","OW201"
"2023-05-08 12:00",6.49516639879329,"Approved","OW201"
"2023-05-08 13:00",6.49107363006317,"Approved","OW201"
"2023-05-08 14:00",6.49135884133304,"Approved","OW201"
"2023-05-08 15:00",6.49100816260292,"Approved","OW201"
"2023-05-08 16:00",6.48975601387279,"Approved","OW201"
"2023-05-08 17:00",6.49081789514267,"Approved","OW201"
"2023-05-08 18:00",6.49257504641255,"Approved","OW201"
"2023-05-08 19:00",6.49494002768242,"Approved","OW201"
"2023-05-08 20:00",6.4973596589523,"Approved","OW201"
"2023-05-08 21:00",6.49837309022217,"Approved","OW201"
"2023-05-08 22:00",6.50325667149205,"Approved","OW201"
"2023-05-08 23:00",6.50498250276193,"Approved","OW201"
"2023-05-09 00:00",6.5069957740318,"Approved","OW201"
"2023-05-09 01:00",6.50543416530168,"Approved","OW201"
"2023-05-09 02:00",6.50502410657155,"Approved","OW201"
"2023-05-09 03:00",6.50340311784143,"Approved","OW201"
"2023-05-09 04:00",6.5058945291113,"Approved","OW201"
"2023-05-09 05:00",6.50704222038118,"Approved","OW201"
"2023-05-09 06:00",6.50825712165106,"Approved","OW201"
"2023-05-09 07:00",6.51053287292093,"Approved","OW201"
"2023-05-09 08:00",6.51148366419081,"Approved","OW201"
"2023-05-09 09:00",6.51043918546068,"Approved","OW201"
"2023-05-09 10:00",6.51026648673056,"Approved","OW201"
"2023-05-09 11:00",6.50924223800044,"Approved","OW201"
"2023-05-09 12:00",6.50707426927031,"Approved","OW201"
"2023-05-09 13:00",6.50531723054019,"Approved","OW201"
"2023-05-09 14:00",6.50642104181006,"Approved","OW201"
"2023-05-09 15:00",6.50557493307994,"Approved","OW201"
"2023-05-09 16:00",6.50287270434981,"Approved","OW201"
"2023-05-09 17:00",6.50160799561969,"Approved","OW201"
"2023-05-09 18:00",6.50233072688957,"Approved","OW201"
"2023-05-09 19:00",6.50314725815944,"Approved","OW201"
"2023-05-09 20:00",6.50339037942932,"Approved","OW201"
"2023-05-09 21:00",6.50407412069919,"Approved","OW201"
"2023-05-09 22:00",6.50599375196907,"Approved","OW201"
"2023-05-09 23:00",6.50714617323895,"Approved","OW201"
"2023-05-10 00:00",6.51035161450882,"Approved","OW201"
"2023-05-10 01:00",6.5094306257787,"Approved","OW201"
"2023-05-10 02:00",6.50676281704857,"Approved","OW201"
"2023-05-10 03:00",6.50853236831845,"Approved","OW201"
"2023-05-10 04:00",6.50828478958833,"Approved","OW201"
"2023-05-10 05:00",6.5095403108582,"Approved","OW201"
"2023-05-10 06:00",6.50889746212808,"Approved","OW201"
"2023-05-10 07:00",6.51318724339795,"Approved","OW201"
"2023-05-10 08:00",6.51165222466783,"Approved","OW201"
"2023-05-10 09:00",6.5087672859377,"Approved","OW201"
"2023-05-10 10:00",6.50330273720758,"Approved","OW201"
"2023-05-10 11:00",6.50114585847746,"Approved","OW201"
"2023-05-10 12:00",6.49859990974733,"Approved","OW201"
"2023-05-10 13:00",6.49815233101721,"Approved","OW201"
"2023-05-10 14:00",6.49498452228708,"Approved","OW201"
"2023-05-10 15:00",6.49671655355696,"Approved","OW201"
"2023-05-10 16:00",6.49583308482683,"Approved","OW201"
"2023-05-10 17:00",6.49489186609671,"Approved","OW201"
"2023-05-10 18:00",6.49291165736659,"Approved","OW201"
"2023-05-10 19:00",6.49130648863646,"Approved","OW201"
"2023-05-10 20:00",6.49353557990634,"Approved","OW201"
"2023-05-10 21:00",6.49657870117621,"Approved","OW201"
"2023-05-10 22:00",6.50165298244609,"Approved","OW201"
"2023-05-10 23:00",6.50635532371597,"Approved","OW201"
"2023-05-11 00:00",6.50669844498584,"Approved","OW201"
"2023-05-11 01:00",6.50688218625572,"Approved","OW201"
"2023-05-11 02:00",6.51146103752559,"Approved","OW201"
"2023-05-11 03:00",6.51301182879547,"Approved","OW201"
"2023-05-11 04:00",6.51689688006535,"Approved","OW201"
"2023-05-11 05:00",6.52206154133522,"Approved","OW201"
"2023-05-11 06:00",6.5200514826051,"Approved","OW201"
"2023-05-11 07:00",6.52049297387497,"Approved","OW201"
"2023-05-11 08:00",6.51964539514485,"Approved","OW201"
"2023-05-11 09:00",6.51890564641472,"Approved","OW201"
"2023-05-11 10:00",6.5191345776846,"Approved","OW201"
"2023-05-11 11:00",6.52004784895448,"Approved","OW201"
"2023-05-11 12:00",6.51802213022435,"Approved","OW201"
"2023-05-11 13:00",6.51672137149423,"Approved","OW201"
"2023-05-11 14:00",6.5162752627641,"Approved","OW201"
"2023-05-11 15:00",6.51144497403398,"Approved","OW201"
"2023-05-11 16:00",6.51038173530386,"Approved","OW201"
"2023-05-11 17:00",6.50612648657373,"Approved","OW201"
"2023-05-11 18:00",6.50875851784361,"Approved","OW201"
"2023-05-11 19:00",6.50899380911348,"Approved","OW201"
"2023-05-11 20:00",6.50902290038336,"Approved","OW201"
"2023-05-11 21:00",6.50875982165323,"Approved","OW201"
"2023-05-11 22:00",6.50935612292311,"Approved","OW201"
"2023-05-11 23:00",6.51199924419299,"Approved","OW201"
"2023-05-12 00:00",6.51188771546286,"Approved","OW201"
"2023-05-12 01:00",6.51366362673274,"Approved","OW201"
"2023-05-12 02:00",6.51406612800261,"Approved","OW201"
"2023-05-12 03:00",6.51545916927249,"Approved","OW201"
"2023-05-12 04:00",6.51988957054237,"Approved","OW201"
"2023-05-12 05:00",6.52115129181224,"Approved","OW201"
"2023-05-12 06:00",6.52154743308212,"Approved","OW201"
"2023-05-12 07:00",6.52258729435199,"Approved","OW201"
"2023-05-12 08:00",6.52555521562187,"Approved","OW201"
"2023-05-12 09:00",6.52854499689174,"Approved","OW201"
"2023-05-12 10:00",6.52868485816162,"Approved","OW201"
"2023-05-12 11:00",6.5300012294315,"Approved","OW201"
"2023-05-12 12:00",6.52943016070137,"Approved","OW201"
"2023-05-12 13:00",6.52669351197125,"Approved","OW201"
"2023-05-12 14:00",6.53000662324112,"Approved","OW201"
"2023-05-12 15:00",6.527484004511,"Approved","OW201"
"2023-05-12 16:00",6.52518797578088,"Approved","OW201"
"2023-05-12 17:00",6.52568868705075,"Approved","OW201"
"2023-05-12 18:00",6.52629102832063,"Approved","OW201"
"2023-05-12 19:00",6.5255793395905,"Approved","OW201"
"2023-05-12 20:00",6.52283812086038,"Approved","OW201"
"2023-05-12 21:00",6.52549837213026,"Approved","OW201"
"2023-05-12 22:00",6.52587265340013,"Approved","OW201"
"2023-05-12 23:00",6.52829228467001,"Approved","OW201"
"2023-05-13 00:00",6.52953687593988,"Approved","OW201"
"2023-05-13 01:00",6.52859565720976,"Approved","OW201"
"2023-05-13 02:00",6.52938559847963,"Approved","OW201"
"2023-05-13 03:00",6.53221762974951,"Approved","OW201"
"2023-05-13 04:00",6.53401997101939,"Approved","OW201"
"2023-05-13 05:00",6.53995331228926,"Approved","OW201"
"2023-05-13 06:00",6.54292270355914,"Approved","OW201"
"2023-05-13 07:00",6.53977512482901,"Approved","OW201"
"2023-05-13 08:00",6.54266017609889,"Approved","OW201"
"2023-05-13 09:00",6.54202662736876,"Approved","OW201"
"2023-05-13 10:00",6.54434919863864,"Approved","OW201"
"2023-05-13 11:00",6.54502494990852,"Approved","OW201"
"2023-05-13 12:00",6.54534605117839,"Approved","OW201"
"2023-05-13 13:00",6.54468281244827,"Approved","OW201"
"2023-05-13 14:00",6.54444763371814,"Approved","OW201"
"2023-05-13 15:00",6.54407966498802,"Approved","OW201"
"2023-05-13 16:00",6.5411508462579,"Approved","OW201"
"2023-05-13 17:00",6.53866737752777,"Approved","OW201"
"2023-05-13 18:00",6.53794165879765,"Approved","OW201"
"2023-05-13 19:00",6.53261773006752,"Approved","OW201"
"2023-05-13 20:00",6.5293562813374,"Approved","OW201"
"2023-05-13 21:00",6.52914165260727,"Approved","OW201"
"2023-05-13 22:00",6.52829423387715,"Approved","OW201"
"2023-05-13 23:00",6.52921402514703,"Approved","OW201"
"2023-05-14 00:00",6.5339132664169,"Approved","OW201"
"2023-05-14 01:00",6.53548917768678,"Approved","OW201"
"2023-05-14 02:00",6.53198400895665,"Approved","OW201"
"2023-05-14 03:00",6.53206465022653,"Approved","OW201"
"2023-05-14 04:00",6.53432490149641,"Approved","OW201"
"2023-05-14 05:00",6.53703980276628,"Approved","OW201"
"2023-05-14 06:00",6.53777346403616,"Approved","OW201"
"2023-05-14 07:00",6.53606193530603,"Approved","OW201"
"2023-05-14 08:00",6.53747373657591,"Approved","OW201"
"2023-05-14 09:00",6.53599499784579,"Approved","OW201"
"2023-05-14 10:00",6.53549439911566,"Approved","OW201"
"2023-05-14 11:00",6.53764062038554,"Approved","OW201"
"2023-05-14 12:00",6.53432452165541,"Approved","OW201"
"2023-05-14 13:00",6.53594888292529,"Approved","OW201"
"2023-05-14 14:00",6.53712169419516,"Approved","OW201"
"2023-05-14 15:00",6.53661016546504,"Approved","OW201"
"2023-05-14 16:00",6.53605801673492,"Approved","OW201"
"2023-05-14 17:00",6.53352315800479,"Approved","OW201"
"2023-05-14 18:00",6.53267263927467,"Approved","OW201"
"2023-05-14 19:00",6.52965654054454,"Approved","OW201"
"2023-05-14 20:00",6.52648579181442,"Approved","OW201"
"2023-05-14 21:00",6.5258806230843,"Approved","OW201"
"2023-05-14 22:00",6.52820971435417,"Approved","OW201"
"2023-05-14 23:00",6.52842020562405,"Approved","OW201"
"2023-05-15 00:00",6.53016658689392,"Approved","OW201"
"2023-05-15 01:00",6.5312379281638,"Approved","OW201"
"2023-05-15 02:00",6.53311546943367,"Approved","OW201"
"2023-05-15 03:00",6.53723820070355,"Approved","OW201"
"2023-05-15 04:00",6.54222488197343,"Approved","OW201"
"2023-05-15 05:00",6.5459521832433,"Approved","OW201"
"2023-05-15 06:00",6.54726235451318,"Approved","OW201"
"2023-05-15 07:00",6.54770694578305,"Approved","OW201"
"2023-05-15 08:00",6.54498448705293,"Approved","OW201"
"2023-05-15 09:00",6.54403853832281,"Approved","OW201"
"2023-05-15 10:00",6.54237545959268,"Approved","OW201"
"2023-05-15 11:00",6.54284044086256,"Approved","OW201"
"2023-05-15 12:00",6.54291015213243,"Approved","OW201"
"2023-05-15 13:00",6.54549226340231,"Approved","OW201"
"2023-05-15 14:00",6.54749313467218,"Approved","OW201"
"2023-05-15 15:00",6.54734408594206,"Approved","OW201"
"2023-05-15 16:00",6.54868247721194,"Approved","OW201"
"2023-05-15 17:00",6.54647257848181,"Approved","OW201"
"2023-05-15 18:00",6.54512042975169,"Approved","OW201"
"2023-05-15 19:00",6.54416828102156,"Approved","OW201"
"2023-05-15 20:00",6.54166931229144,"Approved","OW201"
"2023-05-15 21:00",6.54059840356132,"Approved","OW201"
"2023-05-15 22:00",6.53961036483119,"Approved","OW201"
"2023-05-15 23:00",6.54266751610107,"Approved","OW201"
"2023-05-16 00:00",6.54719954737094,"Approved","OW201"
"2023-05-16 01:00",6.54991134864082,"Approved","OW201"
"2023-05-16 02:00",6.55188252991069,"Approved","OW201"
"2023-05-16 03:00",6.55441146118057,"Approved","OW201"
"2023-05-16 04:00",6.55679504245045,"Approved","OW201"
"2023-05-16 05:00",6.56101288372032,"Approved","OW201"
"2023-05-16 06:00",6.5609855349902,"Approved","OW201"
"2023-05-16 07:00",6.56243779626007,"Approved","OW201"
"2023-05-16 08:00",6.56289788752995,"Approved","OW201"
"2023-05-16 09:00",6.56240642879983,"Approved","OW201"
"2023-05-16 10:00",6.5615197000697,"Approved","OW201"
"2023-05-16 11:00",6.56212824133958,"Approved","OW201"
"2023-05-16 12:00",6.56344771260945,"Approved","OW201"
"2023-05-16 13:00",6.56670307387933,"Approved","OW201"
"2023-05-16 14:00",6.56803037514921,"Approved","OW201"
"2023-05-16 15:00",6.56950612641908,"Approved","OW201"
"2023-05-16 16:00",6.57125528768896,"Approved","OW201"
"2023-05-16 17:00",6.57011080895883,"Approved","OW201"
"2023-05-16 18:00",6.57093501022871,"Approved","OW201"
"2023-05-16 19:00",6.56819526149858,"Approved","OW201"
"2023-05-16 20:00",6.56735388276846,"Approved","OW201"
"2023-05-16 21:00",6.56415475403834,"Approved","OW201"
"2023-05-16 22:00",6.56150097530821,"Approved","OW201"
"2023-05-16 23:00",6.55834882657809,"Approved","OW201"
"2023-05-17 00:00",6.55809814784796,"Approved","OW201"
"2023-05-17 01:00",6.55714909911784,"Approved","OW201"
"2023-05-17 02:00",6.55735943038772,"Approved","OW201"
"2023-05-17 03:00",6.55787286165759,"Approved","OW201"
"2023-05-17 04:00",6.56296574292747,"Approved","OW201"
"2023-05-17 05:00",6.56374312419734,"Approved","OW201"
"2023-05-17 06:00",6.56464546546722,"Approved","OW201"
"2023-05-17 07:00",6.56236819673709,"Approved","OW201"
"2023-05-17 08:00",6.55913627800697,"Approved","OW201"
"2023-05-17 09:00",6.55479815927685,"Approved","OW201"
"2023-05-17 10:00",6.55169283054672,"Approved","OW201"
"2023-05-17 11:00",6.5491703718166,"Approved","OW201"
"2023-05-17 12:00",6.54832442308647,"Approved","OW201"
"2023-05-17 13:00",6.54668793435635,"Approved","OW201"
"2023-05-17 14:00",6.54565144562623,"Approved","OW201"
"2023-05-17 15:00",6.5452821668961,"Approved","OW201"
"2023-05-17 16:00",6.54585350816598,"Approved","OW201"
"2023-05-17 17:00",6.54736073943585,"Approved","OW201"
"2023-05-17 18:00",6.54693991070573,"Approved","OW201"
"2023-05-17 19:00",6.54560505197561,"Approved","OW201"
"2023-05-17 20:00",6.54272647324548,"Approved","OW201"
"2023-05-17 21:00",6.54147595451536,"Approved","OW201"
"2023-05-17 22:00",6.53738334578523,"Approved","OW201"
"2023-05-17 23:00",6.53662972705511,"Approved","OW201"
"2023-05-18 00:00",6.53456990832498,"Approved","OW201"
"2023-05-18 01:00",6.53373194959486,"Approved","OW201"
"2023-05-18 02:00",6.53520329086474,"Approved","OW201"
"2023-05-18 03:00",6.53926827213461,"Approved","OW201"
"2023-05-18 04:00",6.54375821340449,"Approved","OW201"
"2023-05-18 05:00",6.54847148467436,"Approved","OW201"
"2023-05-18 06:00",6.54998328594424,"Approved","OW201"
"2023-05-18 07:00",6.54929508721411,"Approved","OW201"
"2023-05-18 08:00",6.54727099848399,"Approved","OW201"
"2023-05-18 09:00",6.54273450975387,"Approved","OW201"
"2023-05-18 10:00",6.53887926102374,"Approved","OW201"
"2023-05-18 11:00",6.53841765229362,"Approved","OW201"
"2023-05-18 12:00",6.53806077356349,"Approved","OW201"
"2023-05-18 13:00",6.53768513483337,"Approved","OW201"
"2023-05-18 14:00",6.54230933610325,"Approved","OW201"
"2023-05-18 15:00",6.54531640737312,"Approved","OW201"
"2023-05-18 16:00",6.549337508643,"Approved","OW201"
"2023-05-18 17:00",6.55071341991287,"Approved","OW201"
"2023-05-18 18:00",6.55255491118275,"Approved","OW201"
"2023-05-18 19:00",6.55855089245263,"Approved","OW201"
"2023-05-18 20:00",6.5632984237225,"Approved","OW201"
"2023-05-18 21:00",6.56334758499238,"Approved","OW201"
"2023-05-18 22:00",6.56285612626225,"Approved","OW201"
"2023-05-18 23:00",6.56465210753213,"Approved","OW201"
"2023-05-19 00:00",6.564438788802,"Approved","OW201"
"2023-05-19 01:00",6.56690818007188,"Approved","OW201"
"2023-05-19 02:00",6.56887757134176,"Approved","OW201"
"2023-05-19 03:00",6.57115006261163,"Approved","OW201"
"2023-05-19 04:00",6.57698960388151,"Approved","OW201"
"2023-05-19 05:00",6.58274627515138,"Approved","OW201"
"2023-05-19 06:00",6.58252186642126,"Approved","OW201"
"2023-05-19 07:00",6.57950381769113,"Approved","OW201"
"2023-05-19 08:00",6.57385460896101,"Approved","OW201"
"2023-05-19 09:00",6.56836168023089,"Approved","OW201"
"2023-05-19 10:00",6.56364216150076,"Approved","OW201"
"2023-05-19 11:00",6.56105543277064,"Approved","OW201"
"2023-05-19 12:00",6.55835467404051,"Approved","OW201"
"2023-05-19 13:00",6.55870693531039,"Approved","OW201"
"2023-05-19 14:00",6.56084353658027,"Approved","OW201"
"2023-05-19 15:00",6.56176300785014,"Approved","OW201"
"2023-05-19 16:00",6.56291999912002,"Approved","OW201"
"2023-05-19 17:00",6.56266459038989,"Approved","OW201"
"2023-05-19 18:00",6.56414507165977,"Approved","OW201"
"2023-05-19 19:00",6.56255377292965,"Approved","OW201"
"2023-05-19 20:00",6.55987976419952,"Approved","OW201"
"2023-05-19 21:00",6.5590884654694,"Approved","OW201"
"2023-05-19 22:00",6.55590972673927,"Approved","OW201"
"2023-05-19 23:00",6.55195447800915,"Approved","OW201"
"2023-05-20 00:00",6.55017573927902,"Approved","OW201"
"2023-05-20 01:00",6.5504578505489,"Approved","OW201"
"2023-05-20 02:00",6.55029624181878,"Approved","OW201"
"2023-05-20 03:00",6.55083773308865,"Approved","OW201"
"2023-05-20 04:00",6.55137922435853,"Approved","OW201"
"2023-05-20 05:00",6.5544862956284,"Approved","OW201"
"2023-05-20 06:00",6.55583708689828,"Approved","OW201"
"2023-05-20 07:00",6.55505198816816,"Approved","OW201"
"2023-05-20 08:00",6.55496215943803,"Approved","OW201"
"2023-05-20 09:00",6.55217396070791,"Approved","OW201"
"2023-05-20 10:00",6.54764987197778,"Approved","OW201"
"2023-05-20 11:00",6.54529136324766,"Approved","OW201"
"2023-05-20 12:00",6.54485308451754,"Approved","OW201"
"2023-05-20 13:00",6.54510077578741,"Approved","OW201"
"2023-05-20 14:00",6.54674683705729,"Approved","OW201"
"2023-05-20 15:00",6.54676173832716,"Approved","OW201"
"2023-05-20 16:00",6.54629702959704,"Approved","OW201"
"2023-05-20 17:00",6.54656674086691,"Approved","OW201"
"2023-05-20 18:00",6.55043629213679,"Approved","OW201"
"2023-05-20 19:00",6.55210437340667,"Approved","OW201"
"2023-05-20 20:00",6.55326152467654,"Approved","OW201"
"2023-05-20 21:00",6.55438115594642,"Approved","OW201"
"2023-05-20 22:00",6.55294303721629,"Approved","OW201"
"2023-05-20 23:00",6.55238925848617,"Approved","OW201"
"2023-05-21 00:00",6.55199795975604,"Approved","OW201"
"2023-05-21 01:00",6.54984108102592,"Approved","OW201"
"2023-05-21 02:00",6.5526028022958,"Approved","OW201"
"2023-05-21 03:00",6.55598165356567,"Approved","OW201"
"2023-05-21 04:00",6.55715903483555,"Approved","OW201"
"2023-05-21 05:00",6.55905827610542,"Approved","OW201"
"2023-05-21 06:00",6.5591544173753,"Approved","OW201"
"2023-05-21 07:00",6.55768970864518,"Approved","OW201"
"2023-05-21 08:00",6.55623119991505,"Approved","OW201"
"2023-05-21 09:00",6.55278215118493,"Approved","OW201"
"2023-05-21 10:00",6.5504533324548,"Approved","OW201"
"2023-05-21 11:00",6.54779482372468,"Approved","OW201"
"2023-05-21 12:00",6.54728313499455,"Approved","OW201"
"2023-05-21 13:00",6.54322315626443,"Approved","OW201"
"2023-05-21 14:00",6.54395681753431,"Approved","OW201"
"2023-05-21 15:00",6.54325768880418,"Approved","OW201"
"2023-05-21 16:00",6.54433360007406,"Approved","OW201"
"2023-05-21 17:00",6.54715160134393,"Approved","OW201"
"2023-05-21 18:00",6.55294138261381,"Approved","OW201"
"2023-05-21 19:00",6.55581876388369,"Approved","OW201"
"2023-05-21 20:00",6.56067575515356,"Approved","OW201"
"2023-05-21 21:00",6.56292654642344,"Approved","OW201"
"2023-05-21 22:00",6.56697880769331,"Approved","OW201"
"2023-05-21 23:00",6.56568897896319,"Approved","OW201"
"2023-05-22 00:00",6.56340241023306,"Approved","OW201"
"2023-05-22 01:00",6.56276266150294,"Approved","OW201"
"2023-05-22 02:00",6.55770904277282,"Approved","OW201"
"2023-05-22 03:00",6.55806929404269,"Approved","OW201"
"2023-05-22 04:00",6.56005450531257,"Approved","OW201"
"2023-05-22 05:00",6.56264901658244,"Approved","OW201"
"2023-05-22 06:00",6.56351546785232,"Approved","OW201"
"2023-05-22 07:00",6.5637350991222,"Approved","OW201"
"2023-05-22 08:00",6.56252504039207,"Approved","OW201"
"2023-05-22 09:00",6.56080405166195,"Approved","OW201"
"2023-05-22 10:00",6.55805027293182,"Approved","OW201"
"2023-05-22 11:00",6.5557402142017,"Approved","OW201"
"2023-05-22 12:00",6.55408170547157,"Approved","OW201"
"2023-05-22 13:00",6.55293722674145,"Approved","OW201"
"2023-05-22 14:00",6.55000220801133,"Approved","OW201"
"2023-05-22 15:00",6.5511546292812,"Approved","OW201"
"2023-05-22 16:00",6.55050868055108,"Approved","OW201"
"2023-05-22 17:00",6.55201738182095,"Approved","OW201"
"2023-05-22 18:00",6.55633538309083,"Approved","OW201"
"2023-05-22 19:00",6.55882532436071,"Approved","OW201"
"2023-05-22 20:00",6.55951379563058,"Approved","OW201"
"2023-05-22 21:00",6.56217404690046,"Approved","OW201"
"2023-05-22 22:00",6.56221716817033,"Approved","OW201"
"2023-05-22 23:00",6.56580384944021,"Approved","OW201"
"2023-05-23 00:00",6.56581255071008,"Approved","OW201"
"2023-05-23 01:00",6.56369319197996,"Approved","OW201"
"2023-05-23 02:00",6.56288166324984,"Approved","OW201"
"2023-05-23 03:00",6.56168416451971,"Approved","OW201"
"2023-05-23 04:00",6.56368030578959,"Approved","OW201"
"2023-05-23 05:00",6.56366714705946,"Approved","OW201"
"2023-05-23 06:00",6.56347747832934,"Approved","OW201"
"2023-05-23 07:00",6.56474865959922,"Approved","OW201"
"2023-05-23 08:00",6.56501364086909,"Approved","OW201"
"2023-05-23 09:00",6.56471141213897,"Approved","OW201"
"2023-05-23 10:00",6.56086089340884,"Approved","OW201"
"2023-05-23 11:00",6.55925556467872,"Approved","OW201"
"2023-05-23 12:00",6.5577908559486,"Approved","OW201"
"2023-05-23 13:00",6.55591211721847,"Approved","OW201"
"2023-05-23 14:00",6.55592391848835,"Approved","OW201"
"2023-05-23 15:00",6.55690602975822,"Approved","OW201"
"2023-05-23 16:00",6.5574741110281,"Approved","OW201"
"2023-05-23 17:00",6.55835785229797,"Approved","OW201"
"2023-05-23 18:00",6.56104779356785,"Approved","OW201"
"2023-05-23 19:00",6.56306905483773,"Approved","OW201"